TimeMDT,TemperatureF,Dew PointF,Humidity,Sea Level PressureIn,VisibilityMPH,Wind Direction,Wind SpeedMPH,Gust SpeedMPH,PrecipitationIn,Events,Conditions,WindDirDegrees,DateUTC
12:53 AM,51.1,36.0,56,29.99,10.0,SSE,3.5,-,N/A,,Clear,150,2013-05-13 06:53:00
1:53 AM,50.0,35.1,57,29.97,10.0,SSE,5.8,-,N/A,,Clear,160,2013-05-13 07:53:00
2:53 AM,48.0,35.1,61,29.96,10.0,Calm,Calm,-,N/A,,Clear,0,2013-05-13 08:53:00
3:53 AM,45.0,33.1,63,29.98,10.0,Calm,Calm,-,N/A,,Clear,0,2013-05-13 09:53:00
4:53 AM,45.0,33.1,63,29.98,10.0,Calm,Calm,-,N/A,,Clear,0,2013-05-13 10:53:00
5:53 AM,43.0,34.0,71,29.99,10.0,Calm,Calm,-,N/A,,Clear,0,2013-05-13 11:53:00
6:53 AM,43.0,35.1,74,30.01,10.0,Calm,Calm,-,N/A,,Clear,0,2013-05-13 12:53:00
7:53 AM,48.9,36.0,61,29.99,10.0,Calm,Calm,-,N/A,,Clear,0,2013-05-13 13:53:00
8:53 AM,55.9,37.9,51,29.98,10.0,Calm,Calm,-,N/A,,Clear,0,2013-05-13 14:53:00
9:53 AM,64.0,37.9,38,29.94,10.0,Calm,Calm,-,N/A,,Clear,0,2013-05-13 15:53:00
10:53 AM,71.1,37.9,30,29.92,10.0,North,3.5,-,N/A,,Clear,10,2013-05-13 16:53:00
11:53 AM,75.9,30.9,19,29.88,10.0,SW,11.5,20.7,N/A,,Clear,220,2013-05-13 17:53:00
12:32 PM,78.8,26.6,15,30.03,10.0,WSW,16.1,27.6,N/A,,Partly Cloudy,250,2013-05-13 18:32:00
12:53 PM,78.1,28.9,17,29.87,10.0,West,17.3,28.8,N/A,,Partly Cloudy,270,2013-05-13 18:53:00
2:53 PM,81.0,27.0,14,29.82,10.0,West,24.2,36.8,N/A,,Partly Cloudy,260,2013-05-13 20:53:00
3:53 PM,80.1,28.0,15,29.79,10.0,WSW,18.4,27.6,N/A,,Clear,240,2013-05-13 21:53:00
4:53 PM,80.1,28.0,15,29.74,10.0,SSW,13.8,28.8,N/A,,Partly Cloudy,210,2013-05-13 22:53:00
5:53 PM,80.6,26.6,14,29.85,10.0,SW,17.3,29.9,N/A,,Partly Cloudy,220,2013-05-13 23:53:00
6:53 PM,79.0,25.0,14,29.71,10.0,SW,16.1,31.1,N/A,,Scattered Clouds,220,2013-05-14 00:53:00
7:53 PM,75.9,19.9,12,29.71,10.0,WSW,13.8,28.8,N/A,,Clear,240,2013-05-14 01:53:00
8:53 PM,72.0,21.0,15,29.73,10.0,WSW,6.9,18.4,N/A,,Clear,250,2013-05-14 02:53:00
9:53 PM,63.0,39.9,43,29.78,9.0,NNW,12.7,-,N/A,,Partly Cloudy,340,2013-05-14 03:53:00
10:53 PM,60.1,41.0,49,29.81,10.0,NNW,12.7,19.6,N/A,,Partly Cloudy,340,2013-05-14 04:53:00
11:53 PM,53.1,39.9,61,29.85,10.0,NW,15.0,-,N/A,,Partly Cloudy,320,2013-05-14 05:53:00